Regional Weather Roundup
Issued by NWS

Home | Current Version | Previous Version | Text Only | Print | Product List | Glossary Off
Versions: 1 2 3 4 5 6 7 8 9 10 11 12 13 14 15 16 17 18 19 20 21 22 23 24 25 26 27 28 29 30 31 32 33 34 35 36 37 38 39 40 41 42 43 44 45 46 47 48 49 50

522
ASUS43 KMPX 010401
RWRMN
WEATHER ROUNDUP FOR MINNESOTA
NATIONAL WEATHER SERVICE TWIN CITIES/CHANHASSEN MN
1100 PM CDT TUE MAY 31 2016


NOTE: "FAIR" INDICATES FEW OR NO CLOUDS BELOW 12,000 FEET WITH NO
SIGNIFICANT WEATHER AND/OR OBSTRUCTIONS TO VISIBILITY. N/A MEANS
CURRENT SKY AND/OR WEATHER CONDITIONS ARE NOT AVAILABLE.

MNZ060>063-068>070-010500-
   Twin Cities Metro

CITY           SKY/WX    TMP DP  RH WIND       PRES   REMARKS
TWIN CITIES    PTCLDY    67  59  75 S8        29.86S
ST PAUL        CLEAR     63  61  93 S7        29.86S
CRYSTAL        CLEAR     61  52  72 S6        29.84R
BLAINE         CLEAR     66  63  88 S8        29.85S
EDEN PRAIRIE   CLEAR     65  50  58 S6        29.85S
SOUTH ST PAUL  CLEAR     64  61  90 S6        29.87S
LAKE ELMO      FAIR      63  61  94 S7        29.88S
$$
MNZ001>005-007-008-013>017-022>024-027-028-010500-
   Northwest Minnesota

CITY           SKY/WX    TMP DP  RH WIND       PRES   REMARKS
BEMIDJI        DRIZZLE   59  49  70 SE7       29.72F
HALLOCK        PTCLDY    57  54  88 NE3       29.66F
ROSEAU         MOCLDY    57  54  88 E10       29.70F
WARROAD        CLOUDY    57  54  88 E14       29.73S
THIEF RVR FALL CLOUDY    57  50  77 S13       29.69R
CROOKSTON      RAIN      57  54  88 E5        29.66F
FOSSTON        CLOUDY    59  48  67 SE14      29.68S
DETROIT LAKES  CLOUDY    59  52  77 S9        29.70S
MOORHEAD       CLOUDY    61  52  72 S12       29.66S
PARK RAPIDS    CLOUDY    63  48  58 SE16      29.71F
MAHNOMEN       DRIZZLE   60  50  70 S13G18    29.67S
$$
MNZ006-009>011-018-025>026-010500-
   North Central Minnesota

CITY           SKY/WX    TMP DP  RH WIND       PRES   REMARKS
BAUDETTE       CLOUDY    56  54  93 E13       29.75F
FLAG ISLAND    LGT RAIN  55  54  94 E8        29.75F
INTL FALLS     CLOUDY    54  53  97 SE8       29.79F FOG
WASKISH        CLOUDY    57  55  94 E13       29.74F
BIG FORK       CLOUDY    54  52  94 SE8       29.79F FOG
LONGVILLE      MOCLDY    54  52  94 SE5       29.77F
GRAND RAPIDS   FOG       49  49 100 NE8       29.82F VSB 1/2
CRANE LAKE     CLOUDY    50  50 100 CALM      29.85F
ORR            CLOUDY    52  48  87 SE8       29.80F
COOK           CLOUDY    52  50  93 SE5       29.83F
WALKER         CLOUDY    61  49  64 SE7       29.74F
$$
MNZ012-019>021-037-010500-
   Northeast Minnesota

CITY           SKY/WX    TMP DP  RH WIND       PRES   REMARKS
DULUTH         FOG       43  42  97 SE10      29.86F VSB 1/2
ELY            CLOUDY    48  46  93 E5        29.85F
HIBBING        CLOUDY    48  48 100 SE8       29.84S FOG
EVELETH        CLOUDY    48  46  93 E3        29.86S FOG
DULUTH HARBOR  CLOUDY    45  43  93 E16       29.90S
TWO HARBORS    CLOUDY    48  43  81 E5        29.85F HAZE
SILVER BAY     HVY RAIN  46  45  93 NE5       29.86F
GRAND MARAIS     N/A     50  44  80 NE14G22   29.91F
G MARAIS ARPRT LGT RAIN  46  43  87 NE14      29.91F
$$
MNZ029>031-032-039>041-046>048-054>057-064-010500-
   West Central Minnesota

CITY           SKY/WX    TMP DP  RH WIND       PRES   REMARKS
FERGUS FALLS   CLOUDY    63  48  59 SW16      29.67F
WHEATON        CLOUDY    61  52  72 SW23G36   29.75R
MORRIS         PTCLDY    63  46  55 SW24G37   29.76S
ALEXANDRIA     CLOUDY    65  47  52 SW18      29.77S
ELBOW LAKE     CLOUDY    61  47  60 W22G31    29.74R
WADENA         CLOUDY    63  48  59 S12       29.73S
GLENWOOD       CLOUDY    64  48  55 SW24      29.79S
APPLETON       CLEAR     64  45  48 W21G28    29.80R
BENSON         MOCLDY    64  45  48 W15G23    29.80R
ORTONVILLE     CLEAR     61  45  55 SW17G26   29.79R
MADISON        CLEAR     63  45  51 W13       29.82S
WILLMAR        CLOUDY    66  52  59 SW10      29.83R
$$
MNZ033>034-036-042>043-049>051-058-059-010500-
   Central Minnesota

CITY           SKY/WX    TMP DP  RH WIND       PRES   REMARKS
ST CLOUD       CLEAR     61  51  70 S10       29.81F
SAUK CENTRE    CLOUDY    63  50  63 S9        29.79S
PAYNESVILLE    CLOUDY    65  50  59 S10       29.81S
AITKIN         CLOUDY    52  46  82 E6        29.81S HAZE
PINE RIVER     CLOUDY    61  52  72 SE9       29.79F
BRAINERD       MOCLDY    61  49  64 SE8       29.78F
STAPLES        CLOUDY    63  46  55 S9        29.75F
LONG PRAIRIE   CLOUDY    61  52  72 SE8       29.78S
LITTLE FALLS   CLOUDY    63  46  55 S5        29.79S
LITCHFIELD     CLOUDY    64  52  63 S5        29.83F
BUFFALO        CLEAR     64  49  58 S5        29.85S
MAPLE LAKE     CLEAR     64  52  64 S3        29.85S
HUTCHINSON     PTCLDY    63  53  70 S5        29.85S
$$
MNZ037-044-045-052-053-010500-
   East Central Minnesota

CITY           SKY/WX    TMP DP  RH WIND       PRES   REMARKS
PRINCETON      CLEAR     59  52  77 SE3       29.83F
MORA           CLEAR     50  48  93 CALM      29.86F
CAMBRIDGE      CLEAR     63  52  67 SE3       29.82F
RUSH CITY      MOCLDY    62  60  90 S6        29.84F
MOOSE LAKE     FOG       43  41  93 CALM      29.85F VSB 3/4
HINCKLEY       FAIR      48  48 100 CALM      29.85F
CLOQUET        FOG       43  41  93 E5        29.87S VSB 3/4
MCGREGOR       CLOUDY    45  45 100 E8        29.84F VSB 1/2
$$
MNZ071>073-080-081-089-090-097-098-010500-
   Southwest Minnesota

CITY           SKY/WX    TMP DP  RH WIND       PRES   REMARKS
MONTEVIDEO     PTCLDY    64  46  52 W10       29.85R
GRANITE FALLS  CLEAR     66  50  55 SW14      29.86R
CANBY          CLEAR     65  47  52 SW20G30   29.86R
MARSHALL       CLEAR     65  48  54 W15       29.86R
REDWOOD FALLS  PTCLDY    64  52  64 S10       29.84R
OLIVIA         MOCLDY    63  50  63 S8        29.83S
PIPESTONE      CLEAR     61  48  63 W12       29.90R
WINDOM         CLEAR     64  52  63 CALM      29.89S
WORTHINGTON    MOCLDY    64  51  62 S10       29.90R
JACKSON        CLEAR     61  50  67 S6        29.91S
TRACY          PTCLDY    65  52  63 W6G16     29.89R
SLAYTON        PTCLDY    64  49  57 W10       29.91R
$$
MNZ065>067-074>077-082>085-091>093-010500-
   South Central Minnesota

CITY           SKY/WX    TMP DP  RH WIND       PRES   REMARKS
MANKATO        CLEAR     64  48  55 S8        29.88S
NEW ULM        CLEAR     61  52  72 S8        29.86S
ST JAMES       CLEAR    N/A N/A N/A S8        29.89S
FAIRMONT       CLOUDY    61  52  72 S8        29.90R
GLENCOE        CLEAR     64  53  66 S3        29.85S
FARIBAULT      CLEAR     63  61  94 SE6       29.89S
OWATONNA       CLEAR     63  57  82 S7        29.90S
WASECA         CLEAR     59  55  88 S6        29.91S
ALBERT LEA     CLEAR     63  57  82 S3        29.91S
$$
MNZ078>079-086>088-094>096-010500-
   Southeast Minnesota

CITY           SKY/WX    TMP DP  RH WIND       PRES   REMARKS
ROCHESTER      PTCLDY    62  61  96 S5        29.92R
RED WING       PTCLDY    63  61  94 CALM      29.88S
STANTON        CLEAR     64  59  84 S5        29.88S
DODGE CENTER   PTCLDY    59  57  94 S3        29.91S
WINONA         CLOUDY    63  61  94 CALM      29.91S
AUSTIN         PTCLDY    61  57  88 S3        29.92R
PRESTON        MOCLDY    61  59  95 S7        29.91F FOG
$$
ABBREVIATIONS USED IN REMARKS
   TC - TEMPERATURES IN CELSIUS
  WCI - WIND CHILL INDEX
   HX - HEAT INDEX
  VSB - VISIBILITY
$$




USA.gov is the U.S. government's official web portal to all federal, state and local government web resources and services.